Miscellaneous Local Product
Issued by NWS Hastings, NE

Home | Current Version | Previous Version | Graphics & Text | Print | Product List | Glossary On
Versions: 1 2 3 4 5 6 7 8 9 10 11 12 13 14 15 16 17 18 19 20 21 22 23 24 25 26 27 28 29 30 31 32 33 34 35 36 37 38 39 40 41 42 43 44 45 46 47 48 49 50
000
AXUS43 KGID 010302
MISGRI

GID CWA HOURLY WEATHER ROUNDUP
NATIONAL WEATHER SERVICE HASTINGS NE
1000 PM CDT TUE MAR 31 2015

NOTE: "FAIR" INDICATES FEW OR NO CLOUDS BELOW 12,000 FEET WITH NO
SIGNIFICANT WEATHER AND/OR OBSTRUCTIONS TO VISIBILITY.

...SOUTH CENTRAL NEBRASKA...

CITY           SKY/WX    TMP DP  RH WIND       PRES   REMARKS
GRAND ISLAND   CLEAR     63  31  30 S13       29.84S
HASTINGS       CLEAR     64  30  27 S13       29.84S
KEARNEY        CLEAR     61  28  29 S13       29.83F
ORD            CLEAR     63  26  24 S12       29.79S
YORK           CLEAR     64  32  29 S12       29.86S
AURORA         CLEAR     61  31  31 S10       29.85S
LEXINGTON      CLEAR     62  27  26 S12       29.81S
HOLDREGE       CLEAR     59  26  29 SE12      29.83S
HEBRON         CLEAR     59  31  34 S8        29.88R

...NEBRASKA PANHANDLE...

CITY           SKY/WX    TMP DP  RH WIND       PRES   REMARKS
CHADRON        PTCLDY    59  26  28 SE14      29.68F
ALLIANCE       CLEAR     49  26  41 S12       29.74S
SCOTTSBLUFF    MOCLDY    62  23  22 E9        29.73S
SIDNEY         PTCLDY    54  23  30 S13       29.80S

...WESTERN AND NORTH CENTRAL NEBRASKA...

CITY           SKY/WX    TMP DP  RH WIND       PRES   REMARKS
VALENTINE      CLEAR     59  21  23 S7        29.72S
AINSWORTH      CLEAR     58  27  30 S9        29.75S
ONEILL         PTCLDY    63  31  30 S9        29.78S
BROKEN BOW     CLEAR     64  30  27 S12       29.80S
IMPERIAL       CLEAR     55  18  23 SE8       29.79S
NORTH PLATTE   CLEAR     66  25  21 SE12      29.78S
MCCOOK         CLEAR     67  25  20 S12       29.79S

...EASTERN NEBRASKA...

CITY           SKY/WX    TMP DP  RH WIND       PRES   REMARKS
NORFOLK        PTCLDY    62  32  32 S15       29.82S
SO SIOUX CITY  CLEAR     61  30  31 SE8       29.84S
TEKAMAH        CLEAR     52  25  35 SE6       29.86S
COLUMBUS       PTCLDY    59  32  36 S10       29.86F
ALBION         PTCLDY    57  29  34 SE6       29.82S
OMAHA EPPLEY   CLEAR     60  33  36 S10       29.88R
OFFUTT AFB     CLEAR     49  35  57 E6        29.89R
MILLARD        CLEAR     64  32  30 SE3       29.89R
LINCOLN        CLEAR     56  35  45 S8        29.88R
NEBRASKA CITY  CLEAR     60  27  27 S7        29.91S
BEATRICE       CLEAR     63  33  33 SE10      29.89S
FALLS CITY     CLEAR     59  30  33 SE7       29.91S

...NORTHERN KANSAS...

CITY           SKY/WX    TMP DP  RH WIND       PRES   REMARKS
GOODLAND       CLEAR     59  23  25 S14       29.85R
HILL CITY      CLEAR     66  30  26 S12       29.84S
NORTON         CLEAR     64  25  22 SE9       29.82S
PHILLIPSBURG   CLEAR     64  30  27 SE7       29.84S
SMITH CENTER   CLEAR     61  32  33 SE12      29.86S
BELOIT         CLEAR     63  30  29 E9        29.86S
HAYS           CLEAR     59  30  33 S14       29.86S
RUSSELL        CLEAR     60  33  36 SE13      29.85S
CONCORDIA      CLEAR     62  32  32 S12       29.88S
SALINA         CLEAR     63  35  35 SE9       29.89S
TOPEKA         CLEAR     58  38  47 CALM      29.93R



USA.gov is the U.S. government's official web portal to all federal, state and local government web resources and services.